Taegu AB current weather conditions

sailwx.info

Wind from 310 at 16 knots

Air temperature 4.0° C
Dewpoint -13.0° C

Last reported at 2016-Feb-09 01:00 UTC.
Time now 2016-Feb-09 03:19 UTC

Location: N 35°54' E 128°39'.
View on Google Maps.

See reports from other nearby stations

  
Tides and Currents Weather Stations Pressure Air Temp Water Temp Dewpoint Dewpoint Depression Visibility Wind Speed Wind Dir Waves Ship Positions
date/time (UTC)wind fromknots sea level pressurealtimeterstation pressurevisibilityair tempwater tempwave heightnotes
2016-Feb-09 02:00 300 12 5.0
2016-Feb-09 01:00 310 16 4.0
2016-Feb-09 00:00 290 11 3.0
2016-Feb-08 23:00 280 9 2.0
2016-Feb-08 22:00 280 10 5.4 3.0
2016-Feb-08 21:00 300 9 5.4 3.0
2016-Feb-08 20:00 290 17 5.4 4.0
2016-Feb-08 19:00 300 11 5.4 4.0
2016-Feb-08 18:00 300 12 5.4 5.0
2016-Feb-08 17:00 300 9 5.4 6.0
2016-Feb-08 16:00 270 10 5.4 7.0
2016-Feb-08 15:00 270 7 5.4 6.0
2016-Feb-08 14:00 320 4 4.0
2016-Feb-08 13:00 290 5 5.0
2016-Feb-08 12:00 250 6 7.0
2016-Feb-08 11:00 250 5 7.0
2016-Feb-08 10:00 250 5 5.4 7.0
2016-Feb-08 09:00 270 6 5.4 8.0
2016-Feb-08 08:00 270 10 5.4 9.0
2016-Feb-08 07:00 270 8 9.0
2016-Feb-08 06:00 220 3 8.0
2016-Feb-08 05:00 260 4 6.0
2016-Feb-08 04:00 260 7 5.0
2016-Feb-08 03:00 300 5 4.0
2016-Feb-08 02:00 310 5 5.4 2.0
2016-Feb-08 01:00 310 2 -0.0
2016-Feb-08 00:00 120 1 5.4-2.0
2016-Feb-07 23:00 010 1 5.4-6.0
2016-Feb-07 22:00 080 1 5.4-6.0
2016-Feb-07 21:00 300 1 -6.0
2016-Feb-07 20:00 100 1 -6.0
2016-Feb-07 19:00 320 1 -5.0
2016-Feb-07 18:00 300 1 -6.0
2016-Feb-07 17:00 110 1 -5.0
2016-Feb-07 16:00 330 1 -4.0
2016-Feb-07 15:00 140 1 -3.0
2016-Feb-07 14:00 050 1 -3.0
2016-Feb-07 13:00 340 1 -2.0
2016-Feb-07 12:00 100 1 -1.0
2016-Feb-07 11:00 040 1 -0.0
2016-Feb-07 10:00 310 4 2.0
2016-Feb-07 09:00 330 5 4.0
2016-Feb-07 08:00 320 7 6.0
2016-Feb-07 07:00 320 8 6.0
2016-Feb-07 06:00 320 7 6.0
2016-Feb-07 05:00 310 7 5.0
2016-Feb-07 04:00 290 4 4.0
2016-Feb-07 03:00 300 3 2.0